Terminal Aerodrome Forecast
Issued by NWS

Home | Current Version | Previous Version | Text Only | Print | Product List | Glossary On
Versions: 1 2 3 4 5 6 7 8 9 10 11 12 13 14 15 16 17
000
FTUS45 KLKN 280520
TAFTPH
TAF
KTPH 280520Z 2806/0106 34010KT P6SM VCSH OVC050
     FM280800 35011KT P6SM SKC
     FM281700 34013G23KT P6SM SKC
     FM010200 35012KT P6SM SKC=

USA.gov is the U.S. government's official web portal to all federal, state and local government web resources and services.